{"data":{"norad_id":66714,"intl_designator":"2025-276BA","name":"FLOCK 4H-11","alt_names":[],"object_type":"PAYLOAD","status":"ACTIVE","operator":null,"country":"US","launch_date":"2025-11-28","launch_site_code":"AFWTR","launch_vehicle":null,"mission":null,"orbit_class":"UNKNOWN","rcs_meters":null,"size_class":null,"mass_kg":null,"dimensions":null,"purposes":["earth_obs"],"wikipedia_slug":null,"has_3d_model":false,"image_url":null,"decayed_at":null,"tle_current":{"epoch":"2026-05-25T03:49:24.320064Z","epoch_age_seconds":72012,"freshness":"FRESH","line1":"1 66714U 25276BA  26145.15930926  .00013522  00000+0  59636-3 0  9993","line2":"2 66714  97.4205 219.4063 0004497 100.8004 259.3738 15.21895300 26947","mean_motion":15.218953,"eccentricity":0.0004497,"inclination_deg":97.4205,"raan_deg":219.4063,"arg_perigee_deg":100.8004,"mean_anomaly_deg":259.3738,"bstar":0.00059636,"rev_number":2694,"period_min":94.618861100366,"perigee_km":497.03094193606,"apogee_km":503.21724996576,"semimajor_km":6878.2610959509,"source":"CELESTRAK","updated_at":"2026-05-25T13:38:13.347654Z"}}}